Showing default

OPS 4682 (SNAPSHOT), 1314

Orbit data source: Space-Track

OPS 4682 (SNAPSHOT), 1314 is an American payload satellite in LEO that was launched on Sat, 03 Apr 1965 UTC via an ATLAS SLV-3 AGENA D launch vehicle from the Air Force Western Test Range (AFWTR). Payload-class satellites include a variety of spacecraft equipped with specific instruments for various scientific and technological missions. These include communications satellites like Starlink; space stations such as the ISS; scientific satellites like the Hubble; Earth observation satellites from companies like Planet Labs, Umbra, and HawkEye 360; GPS; miniature CubeSats for education and research; and military/defense satellites.

Loading next visibility...
Identifier
1314, 1965-027A
Orbit
LEO
Country
Flag of USUS
Related business
Manufacturer
RCA/East Windsor
Mission
Spacecraft
Bus & Motor
SNAP 10 REACTOR, Unknown motor
Mass
2,386 kg wet, 422 kg dry
Launch date (UTC)
1965-04-03 (61 years ago)
Launch vehicle
ATLAS SLV-3 AGENA D
Launch site
Air Force Western Test Range (AFWTR)
Object type
Payload
Rocket body
Debris
Shape & HBR
Unknown shape, 2.3 m
Radar Cross Section
Large (>1 m²)

Expand to show TLE details & history
Last TLE update: 7 hours ago

TLE from 7 hours ago
0 OPS 4682 (SNAPSHOT)
1 01314U 65027A   26175.31517547  .00000008  00000-0  41076-5 0  9994
2 01314  90.2379   6.4018 0028602 272.6678 260.8996 12.91805358631941
Epoch: 2026-06-24T07:33Z
TLE epoch observation values (Epoch: 2026-06-24T07:33:51.160Z)
Latitude
6.68313°
Longitude
160.49222°
Altitude
1,300.151 km
Speed
7.205 km/s
True Right ascension
12h 25m 43s
True Declination
6° 38' 47"
Sunlit
Object was in daylight at epoch
Visualization orbit readout
Latitude
Unknown
Longitude
Unknown
Altitude
Unknown
Speed
Unknown
Apparent Right ascension
Unknown
Apparent Declination
Unknown
Sunlit
N/A
Visualization observer readout
Local Sidereal Time
01:48:42
Azimuth
Unknown
Elevation
Unknown
Doppler factor
Unknown
Orbital elements
Apogee altitude
1,313.439 km
Perigee altitude
1,269.566 km
Semi-major axis
7,669.639 km
Eccentricity
0.00286
Inclination
90.2379°
RAAN
6.4018°
Arg. of periapsis
272.6678°
True anomaly
260.57616°
Mean anomaly
260.8996°
Eccentric anomaly
260.73786°
Mean motion
3.23133 °/min
Orbital period
111.41 mins
BSTAR
0.0000041076
Loading maneuver chart data...
Computing Atmospheric mass density...
Loading historical data...
Loading historical data...
Loading historical data...
Loading historical data...
Loading historical data...
Loading historical data...
Loading historical data...

Documentation

Showing up to 5 results
|